FW7055 Weather Reports


Display with metric or nautical units.
time (UTC)temp
F
wind
direction
speed
MPH
gust
MPH
rain 1hr
in
rain 24hr
in
rain mn
in
humidity
%
barometer
mb
20260505083601 53 216 2.0 3.0 0.00 0.00 0.00 96 1014.0
20260505083058 53 216 2.0 2.0 0.00 0.00 0.00 96 1014.1
20260505082553 53 205 2.0 2.0 0.00 0.00 0.00 96 1014.2
20260505082051 53 200 2.0 2.0 0.00 0.00 0.00 96 1014.0
20260505081547 53 165 3.0 3.0 0.00 0.00 0.00 96 1014.0
20260505081044 53 182 3.0 3.0 0.00 0.00 0.00 96 1014.1
20260505080540 53 146 0.0 1.0 0.00 0.00 0.00 96 1013.9
20260505080037 53 175 2.0 2.0 0.00 0.00 0.00 96 1014.2
20260505075533 53 181 1.0 1.0 0.00 0.00 0.00 96 1013.8
20260505075030 53 196 2.0 2.0 0.00 0.00 0.00 96 1013.7
20260505074527 53 167 1.0 1.0 0.00 0.00 0.00 95 1013.9
20260505074024 53 184 2.0 2.0 0.00 0.00 0.00 95 1013.8
20260505073521 54 186 1.0 1.0 0.00 0.00 0.00 95 1013.8
20260505073020 54 197 2.0 2.0 0.00 0.00 0.00 95 1013.8
20260505072515 54 182 2.0 2.0 0.00 0.00 0.00 95 1013.6
20260505072011 54 189 1.0 2.0 0.00 0.00 0.00 95 1013.6
20260505071507 54 183 0.0 0.0 0.00 0.00 0.00 94 1013.5
20260505071006 54 185 1.0 2.0 0.00 0.00 0.00 94 1013.4
20260505070502 54 198 1.0 2.0 0.00 0.00 0.00 94 1013.4
20260505065958 54 195 1.0 2.0 0.00 0.00 0.00 94 1013.5
20260505065454 54 232 3.0 3.0 0.00 0.00 0.00 93 1013.0
20260505064951 54 198 1.0 2.0 0.00 0.00 0.00 93 1013.2
20260505064448 54 200 1.0 2.0 0.00 0.00 0.00 93 1013.2
20260505063947 54 230 3.0 3.0 0.00 0.00 0.00 93 1013.4
20260505063442 55 186 1.0 2.0 0.00 0.00 0.00 93 1013.1
20260505062939 55 217 3.0 3.0 0.00 0.00 0.00 92 1012.9
20260505062436 55 195 2.0 2.0 0.00 0.00 0.00 92 1013.0
20260505061933 55 188 3.0 3.0 0.00 0.00 0.00 92 1012.7
20260505061431 55 218 2.0 2.0 0.00 0.00 0.00 92 1012.8
20260505060928 55 182 1.0 1.0 0.00 0.00 0.00 91 1012.7
20260505060425 55 192 2.0 2.0 0.00 0.00 0.00 91 1012.7
20260505055922 55 192 1.0 1.0 0.00 0.00 0.00 91 1012.5
20260505055418 56 222 2.0 3.0 0.00 0.00 0.00 90 1012.3
20260505054915 56 240 4.0 5.0 0.00 0.00 0.00 90 1012.4
20260505054412 56 255 5.0 6.0 0.00 0.00 0.00 90 1012.4
20260505053910 56 255 3.0 3.0 0.00 0.00 0.00 90 1012.2
20260505053407 56 228 2.0 3.0 0.00 0.00 0.00 89 1012.2
20260505052903 56 221 3.0 5.0 0.00 0.00 0.00 89 1012.2
20260505052400 56 256 3.0 3.0 0.00 0.00 0.00 88 1012.2
20260505051858 57 177 1.0 1.0 0.00 0.00 0.00 88 1012.0
20260505051355 57 173 1.0 1.0 0.00 0.00 0.00 87 1012.0
20260505050853 57 199 3.0 5.0 0.00 0.00 0.00 87 1012.0
20260505050351 57 229 5.0 7.0 0.00 0.00 0.00 86 1012.2
20260505041318 60 208 2.0 2.0 0.00 0.00 0.00 81 1011.3
20260505040815 60 244 3.0 5.0 0.00 0.00 0.00 80 1011.4
20260505040313 61 256 8.0 9.0 0.00 0.00 0.00 79 1011.3
20260505035809 61 244 4.0 5.0 0.00 0.00 0.00 78 1011.1
20260505035305 62 237 1.0 2.0 0.00 0.00 0.00 78 1011.3
20260505034803 62 237 4.0 5.0 0.00 0.00 0.00 77 1011.1
20260505034259 62 238 5.0 7.0 0.00 0.00 0.00 76 1011.0
20260505033756 62 260 9.0 11.0 0.00 0.00 0.00 76 1011.1
20260505033254 63 266 9.0 10.0 0.00 0.00 0.00 75 1011.0
20260505032751 63 233 10.0 14.0 0.00 0.00 0.00 74 1010.9
20260505032247 64 220 3.0 3.0 0.00 0.00 0.00 73 1010.8
20260505031744 64 295 5.0 7.0 0.00 0.00 0.00 73 1010.6
20260505031241 65 191 4.0 6.0 0.00 0.00 0.00 72 1010.8
20260505030738 65 249 4.0 7.0 0.00 0.00 0.00 71 1010.7
20260505030234 66 218 7.0 9.0 0.00 0.00 0.00 70 1010.6
20260505025730 66 260 6.0 10.0 0.00 0.00 0.00 69 1010.4
20260505025228 66 275 13.0 15.0 0.00 0.00 0.00 69 1010.3
20260505024726 67 281 7.0 10.0 0.00 0.00 0.00 68 1010.3
20260505024223 67 256 6.0 9.0 0.00 0.00 0.00 67 1010.2
20260505023720 68 259 5.0 6.0 0.00 0.00 0.00 66 1010.2
20260505023217 68 259 7.0 8.0 0.00 0.00 0.00 65 1010.2
20260505022715 69 238 8.0 10.0 0.00 0.00 0.00 64 1010.1
20260505022211 69 160 1.0 1.0 0.00 0.00 0.00 64 1010.1
20260505021708 70 322 9.0 11.0 0.00 0.00 0.00 62 1010.2
20260505021206 70 259 9.0 11.0 0.00 0.00 0.00 62 1010.0
20260505020701 71 282 7.0 9.0 0.00 0.00 0.00 61 1010.1
20260505020151 71 250 3.0 3.0 0.00 0.00 0.00 60 1009.9
20260505015649 72 298 3.0 5.0 0.00 0.00 0.00 60 1010.1
20260505015145 73 225 7.0 7.0 0.00 0.00 0.00 59 1010.1
20260505014642 73 154 3.0 3.0 0.00 0.00 0.00 58 1009.9
20260505014139 73 295 10.0 11.0 0.00 0.00 0.00 58 1009.9
20260505013637 74 148 2.0 3.0 0.00 0.00 0.00 58 1010.0
20260505013133 74 260 7.0 8.0 0.00 0.00 0.00 58 1010.0
20260505012632 75 229 2.0 2.0 0.00 0.00 0.00 57 1009.9
20260505012128 76 261 7.0 8.0 0.00 0.00 0.00 56 1010.1
20260505011624 76 271 3.0 3.0 0.00 0.00 0.00 56 1010.0
20260505011121 75 215 5.0 6.0 0.00 0.00 0.00 57 1009.9
20260505010616 76 277 6.0 7.0 0.00 0.00 0.00 56 1010.1
20260505010114 76 294 5.0 7.0 0.00 0.00 0.00 56 1010.1
20260505005610 76 171 3.0 6.0 0.00 0.00 0.00 55 1010.1
20260505005107 76 249 1.0 2.0 0.00 0.00 0.00 54 1009.7
20260505004604 76 257 3.0 5.0 0.00 0.00 0.00 54 1010.1
20260505004101 76 263 4.0 5.0 0.00 0.00 0.00 53 1010.1
20260505003558 76 269 2.0 2.0 0.00 0.00 0.00 54 1009.9
20260505003055 77 236 6.0 7.0 0.00 0.00 0.00 54 1010.0
20260505002550 77 277 6.0 8.0 0.00 0.00 0.00 54 1010.0
20260505002049 76 291 5.0 6.0 0.00 0.00 0.00 54 1010.0
20260505001546 76 241 6.0 7.0 0.00 0.00 0.00 55 1010.1
20260505001043 77 248 11.0 14.0 0.00 0.00 0.00 55 1009.8
20260505000540 77 254 4.0 5.0 0.00 0.00 0.00 53 1009.8
20260505000038 77 246 3.0 6.0 0.00 0.00 0.00 53 1010.1
20260504235534 77 270 7.0 8.0 0.00 0.00 0.00 54 1009.9
20260504235031 76 263 4.0 5.0 0.00 0.00 0.00 55 1009.9
20260504234528 76 238 2.0 5.0 0.00 0.00 0.00 55 1009.9
20260504234025 77 223 6.0 8.0 0.00 0.00 0.00 53 1009.8
20260504233520 77 218 3.0 3.0 0.00 0.00 0.00 53 1010.0
20260504233018 78 228 4.0 6.0 0.00 0.00 0.00 52 1009.8
20260504232514 77 292 5.0 7.0 0.00 0.00 0.00 53 1009.7
20260504232012 77 240 1.0 1.0 0.00 0.00 0.00 53 1009.9
20260504231509 76 203 4.0 5.0 0.00 0.00 0.00 53 1010.0
20260504231005 78 254 5.0 7.0 0.00 0.00 0.00 52 1010.0
20260504230501 76 236 3.0 3.0 0.00 0.00 0.00 52 1009.9
20260504230000 77 263 5.0 7.0 0.00 0.00 0.00 52 1010.2
20260504225456 78 247 7.0 9.0 0.00 0.00 0.00 52 1010.5
20260504224954 78 189 4.0 5.0 0.00 0.00 0.00 50 1010.2
20260504224450 78 167 3.0 3.0 0.00 0.00 0.00 47 1010.6
20260504223947 78 198 5.0 7.0 0.00 0.00 0.00 48 1010.3
20260504223443 78 210 3.0 5.0 0.00 0.00 0.00 47 1010.6
20260504222939 78 258 6.0 8.0 0.00 0.00 0.00 47 1010.5
20260504222437 77 249 5.0 7.0 0.00 0.00 0.00 49 1010.7
20260504221934 77 221 3.0 3.0 0.00 0.00 0.00 49 1010.4
20260504221431 75 197 1.0 1.0 0.00 0.00 0.00 52 1010.5
20260504220928 78 255 7.0 11.0 0.00 0.00 0.00 50 1010.7
20260504220425 77 264 7.0 9.0 0.00 0.00 0.00 53 1010.9
20260504215922 77 211 3.0 5.0 0.00 0.00 0.00 52 1010.9
20260504215419 77 216 3.0 6.0 0.00 0.00 0.00 53 1010.9
20260504214915 77 279 7.0 8.0 0.00 0.00 0.00 53 1010.8
20260504214412 76 198 5.0 6.0 0.00 0.00 0.00 51 1011.0
20260504213908 77 310 3.0 3.0 0.00 0.00 0.00 54 1010.9
20260504213404 75 259 3.0 3.0 0.00 0.00 0.00 51 1011.0
20260504212902 77 262 11.0 13.0 0.00 0.00 0.00 52 1011.0
20260504212357 75 216 5.0 8.0 0.00 0.00 0.00 53 1011.2
20260504211856 75 280 5.0 7.0 0.00 0.00 0.00 53 1011.0
20260504211351 75 203 3.0 5.0 0.00 0.00 0.00 53 1011.2
20260504210849 75 251 7.0 8.0 0.00 0.00 0.00 53 1011.2
20260504210346 76 293 7.0 8.0 0.00 0.00 0.00 52 1011.0
20260504205843 76 291 6.0 9.0 0.00 0.00 0.00 52 1011.2
20260504205341 77 269 5.0 7.0 0.00 0.00 0.00 50 1011.3
20260504204839 75 186 4.0 5.0 0.00 0.00 0.00 50 1011.4
20260504204337 76 230 5.0 6.0 0.00 0.00 0.00 52 1011.0
20260504203836 77 253 4.0 5.0 0.00 0.00 0.00 50 1011.2
20260504203332 77 210 1.0 2.0 0.00 0.00 0.00 49 1011.2
20260504202828 75 199 2.0 2.0 0.00 0.00 0.00 52 1011.3
20260504202326 75 170 1.0 1.0 0.00 0.00 0.00 49 1011.3
20260504201822 75 182 2.0 2.0 0.00 0.00 0.00 50 1011.2
20260504201320 74 240 2.0 2.0 0.00 0.00 0.00 50 1011.5
20260504200817 75 230 2.0 2.0 0.00 0.00 0.00 48 1011.5
20260504200313 73 240 2.0 2.0 0.00 0.00 0.00 48 1011.6
20260504195809 74 235 5.0 7.0 0.00 0.00 0.00 50 1011.6
20260504195305 73 267 8.0 9.0 0.00 0.00 0.00 51 1011.4
20260504194803 74 247 1.0 1.0 0.00 0.00 0.00 50 1011.6
20260504194259 75 228 5.0 6.0 0.00 0.00 0.00 51 1011.8
20260504193755 74 262 2.0 2.0 0.00 0.00 0.00 50 1011.6
20260504193252 73 213 3.0 3.0 0.00 0.00 0.00 55 1011.7
20260504192751 72 226 5.0 6.0 0.00 0.00 0.00 54 1011.7
20260504192248 72 234 3.0 5.0 0.00 0.00 0.00 56 1011.8
20260504191747 71 232 2.0 3.0 0.00 0.00 0.00 55 1011.7
20260504191243 72 247 8.0 9.0 0.00 0.00 0.00 54 1011.7
20260504190739 70 285 6.0 7.0 0.00 0.00 0.00 56 1011.8
20260504190236 71 264 5.0 8.0 0.00 0.00 0.00 56 1011.8
20260504185732 71 217 6.0 9.0 0.00 0.00 0.00 57 1011.9
20260504185229 71 177 1.0 3.0 0.00 0.00 0.00 54 1012.2
20260504184725 70 269 6.0 7.0 0.00 0.00 0.00 57 1012.1
20260504184221 70 232 3.0 3.0 0.00 0.00 0.00 57 1012.0
20260504183717 70 289 5.0 7.0 0.00 0.00 0.00 58 1012.0
20260504183214 70 171 3.0 5.0 0.00 0.00 0.00 59 1012.1
20260504182712 71 225 1.0 2.0 0.00 0.00 0.00 59 1012.2
20260504182209 68 288 6.0 8.0 0.00 0.00 0.00 62 1012.2
20260504181707 70 300 6.0 6.0 0.00 0.00 0.00 60 1012.2
20260504181204 69 245 3.0 3.0 0.00 0.00 0.00 62 1012.3
20260504180703 68 181 4.0 5.0 0.00 0.00 0.00 61 1012.3
20260504180201 68 277 4.0 5.0 0.00 0.00 0.00 62 1012.0
20260504175658 68 230 4.0 5.0 0.00 0.00 0.00 63 1012.1
20260504175155 68 184 3.0 3.0 0.00 0.00 0.00 64 1012.4
20260504174653 69 250 3.0 3.0 0.00 0.00 0.00 60 1012.1
20260504174150 68 166 1.0 1.0 0.00 0.00 0.00 63 1012.2
20260504173646 68 205 2.0 2.0 0.00 0.00 0.00 64 1012.3
20260504173144 68 193 5.0 7.0 0.00 0.00 0.00 63 1011.9
20260504172640 68 181 5.0 6.0 0.00 0.00 0.00 64 1012.1
20260504172137 68 176 4.0 5.0 0.00 0.00 0.00 65 1012.1
20260504171633 67 146 1.0 2.0 0.00 0.00 0.00 64 1012.2
20260504171131 68 198 3.0 5.0 0.00 0.00 0.00 64 1012.0
20260504170627 68 197 3.0 3.0 0.00 0.00 0.00 65 1012.2
20260504170125 67 191 2.0 2.0 0.00 0.00 0.00 66 1012.1
20260504151010 61 187 2.0 2.0 0.00 0.00 0.00 77 1011.4
20260504150508 60 172 0.0 1.0 0.00 0.00 0.00 79 1011.7
20260504140933 55 84 0.0 0.0 0.00 0.00 0.00 93 1011.3
20260504140430 55 85 1.0 1.0 0.00 0.00 0.00 94 1011.3
20260504130355 52 85 0.0 1.0 0.00 0.00 0.00 98 1010.6
20260504120312 54 84 2.0 2.0 0.00 0.00 0.00 97 1010.5
20260504110236 54 85 0.0 0.0 0.00 0.00 0.00 95 1010.6
20260504100200 55 90 2.0 2.0 0.00 0.00 0.00 91 1010.2
20260504090122 57 91 1.0 1.0 0.00 0.00 0.00 85 1010.1